Regional Weather Roundup
Issued by NWS

Home | Current Version | Previous Version | Graphics & Text | Print | Product List | Glossary On
Versions: 1 2 3 4 5 6 7 8 9 10 11 12 13 14 15 16 17 18 19 20 21 22 23 24 25 26 27 28 29 30 31 32 33 34 35 36 37 38 39 40 41 42 43 44 45 46 47 48 49 50
000
ASUS43 KLMK 261810
RWRKY
KENTUCKY REGIONAL WEATHER ROUNDUP
NATIONAL WEATHER SERVICE LOUISVILLE KY
100 PM EST MON JAN 26 2015

NOTE "FAIR" INDICATES FEW OR NO CLOUDS BELOW 12,000 FEET
WITH NO SIGNIFICANT WEATHER AND/OR OBSTRUCTIONS TO VISIBILITY.

KYZ001>023-026-027-061>063-070>075-261900-
WESTERN AND SOUTH CENTRAL KENTUCKY

CITY           SKY/WX    TMP DP  RH WIND       PRES   REMARKS
PADUCAH        PTSUNNY   37  26  64 NW7       30.02F WCI  32
HENDERSON      CLOUDY    30  25  80 W9        30.01F WCI  22
OWENSBORO      CLOUDY    32  27  82 W8        30.00F WCI  25
HOPKINSVILLE   CLOUDY    32  28  83 W12       30.01F WCI  23
BOWLING GREEN  CLOUDY    32  25  75 W12G17    30.00F WCI  23
GLASGOW        CLOUDY    31  26  81 W7G16     29.98F WCI  24
$$

KYZ024-025-028>034-038-045-046-053-261900-
NORTH CENTRAL KENTUCKY

CITY           SKY/WX    TMP DP  RH WIND       PRES   REMARKS
LOUISVILLE/SDF CLOUDY    32  24  72 W12       29.95F WCI  23
LOUISVILLE/LOU CLOUDY    30  21  69 NW5       29.95F WCI  25
FORT KNOX      CLOUDY    31  24  76 W10       29.94F WCI  22
$$

KYZ035>037-039>044-047>052-055>060-089>105-261900-
NORTHEAST KENTUCKY

CITY           SKY/WX    TMP DP  RH WIND       PRES   REMARKS
LEXINGTON      CLOUDY    27  22  81 W12       29.90F WCI  17
COVINGTON      PTSUNNY   26  18  71 NW6       29.90F WCI  19
FRANKFORT      CLOUDY    27  20  75 NW10      29.91F WCI  17
$$

KYZ054-064>069-076>088-106>120-261900-
SOUTHEAST KENTUCKY

CITY           SKY/WX    TMP DP  RH WIND       PRES   REMARKS
JACKSON        CLOUDY    24  21  88 W12G20    29.83F FOG     WCI  13
LONDON         CLOUDY    28  21  75 W12       29.87F WCI  18
SOMERSET       CLOUDY    28  23  80 NW3       29.93F
MIDDLESBORO    CLOUDY    29  26  88 W8        29.87S WCI  21
MONTICELLO     CLOUDY    30  26  85 W12       29.95F WCI  20
$$




USA.gov is the U.S. government's official web portal to all federal, state and local government web resources and services.